Year,Month,Day,Hour,Minute,Value (Times are PST for temperature in C)
2012,08,24,00,00,15.10
2012,08,24,00,01,15.10
2012,08,24,00,02,15.10
2012,08,24,00,03,15.10
2012,08,24,00,04,15.10
2012,08,24,00,05,15.10
2012,08,24,00,06,15.10
2012,08,24,00,07,15.10
2012,08,24,00,08,15.10
2012,08,24,00,09,15.10
2012,08,24,00,10,15.10
2012,08,24,00,11,15.10
2012,08,24,00,12,15.10
2012,08,24,00,13,15.10
2012,08,24,00,14,15.20
2012,08,24,00,15,15.10
2012,08,24,00,16,15.10
2012,08,24,00,17,15.10
2012,08,24,00,18,15.10
2012,08,24,00,19,15.10
2012,08,24,00,20,15.10
2012,08,24,00,21,15.10
2012,08,24,00,22,15.10
2012,08,24,00,23,15.20
2012,08,24,00,24,15.20
2012,08,24,00,25,15.20
2012,08,24,00,26,15.20
2012,08,24,00,27,15.20
2012,08,24,00,28,15.20
2012,08,24,00,29,15.20
2012,08,24,00,30,15.20
2012,08,24,00,31,15.20
2012,08,24,00,32,15.20
2012,08,24,00,33,15.20
2012,08,24,00,34,15.20
2012,08,24,00,35,15.20
2012,08,24,00,36,15.20
2012,08,24,00,37,15.20
2012,08,24,00,38,15.30
2012,08,24,00,39,15.30
2012,08,24,00,40,15.30
2012,08,24,00,41,15.30
2012,08,24,00,42,15.30
2012,08,24,00,43,15.30
2012,08,24,00,44,15.30
2012,08,24,00,45,15.30
2012,08,24,00,46,15.30
2012,08,24,00,47,15.30
2012,08,24,00,48,15.30
2012,08,24,00,49,15.30
2012,08,24,00,50,15.30
2012,08,24,00,51,15.30
2012,08,24,00,52,15.30
2012,08,24,00,53,15.30
2012,08,24,00,54,15.30
2012,08,24,00,55,15.30
2012,08,24,00,56,15.30
2012,08,24,00,57,15.30
2012,08,24,00,58,15.30
2012,08,24,00,59,15.30
2012,08,24,01,00,15.30
2012,08,24,01,01,15.30
2012,08,24,01,02,15.30
2012,08,24,01,03,15.30
2012,08,24,01,04,15.30
2012,08,24,01,05,15.30
2012,08,24,01,06,15.30
2012,08,24,01,07,15.30
2012,08,24,01,08,15.30
2012,08,24,01,09,15.30
2012,08,24,01,10,15.30
2012,08,24,01,11,15.20
2012,08,24,01,12,15.20
2012,08,24,01,13,15.20
2012,08,24,01,14,15.20
2012,08,24,01,15,15.20
2012,08,24,01,16,15.20
2012,08,24,01,17,15.20
2012,08,24,01,18,15.20
2012,08,24,01,19,15.10
2012,08,24,01,20,15.10
2012,08,24,01,21,15.10
2012,08,24,01,22,15.00
2012,08,24,01,23,15.00
2012,08,24,01,24,15.00
2012,08,24,01,25,15.00
2012,08,24,01,26,15.00
2012,08,24,01,27,15.00
2012,08,24,01,28,15.00
2012,08,24,01,29,15.00
2012,08,24,01,30,15.00
2012,08,24,01,31,15.00
2012,08,24,01,32,15.00
2012,08,24,01,33,15.00
2012,08,24,01,34,14.90
2012,08,24,01,35,14.90
2012,08,24,01,36,14.80
2012,08,24,01,37,14.80
2012,08,24,01,38,14.80
2012,08,24,01,39,14.70
2012,08,24,01,40,14.70
2012,08,24,01,41,14.70
2012,08,24,01,42,14.60
2012,08,24,01,43,14.50
2012,08,24,01,44,14.40
2012,08,24,01,45,14.20
2012,08,24,01,46,14.10
2012,08,24,01,47,14.00
2012,08,24,01,48,13.90
2012,08,24,01,49,13.80
2012,08,24,01,50,13.80
2012,08,24,01,51,13.70
2012,08,24,01,52,13.60
2012,08,24,01,53,13.60
2012,08,24,01,54,13.50
2012,08,24,01,55,13.50
2012,08,24,01,56,13.40
2012,08,24,01,57,13.40
2012,08,24,01,58,13.40
2012,08,24,01,59,13.30
2012,08,24,02,00,13.30
2012,08,24,02,01,13.30
2012,08,24,02,02,13.30
2012,08,24,02,03,13.20
2012,08,24,02,04,13.20
2012,08,24,02,05,13.20
2012,08,24,02,06,13.10
2012,08,24,02,07,13.10
2012,08,24,02,08,13.00
2012,08,24,02,09,13.00
2012,08,24,02,10,12.90
2012,08,24,02,11,12.90
2012,08,24,02,12,12.80
2012,08,24,02,13,12.80
2012,08,24,02,14,12.80
2012,08,24,02,15,12.70
2012,08,24,02,16,12.70
2012,08,24,02,17,12.60
2012,08,24,02,18,12.60
2012,08,24,02,19,12.60
2012,08,24,02,20,12.60
2012,08,24,02,21,12.50
2012,08,24,02,22,12.50
2012,08,24,02,23,12.50
2012,08,24,02,24,12.50
2012,08,24,02,25,12.50
2012,08,24,02,26,12.60
2012,08,24,02,27,12.60
2012,08,24,02,28,12.70
2012,08,24,02,29,12.90
2012,08,24,02,30,13.00
2012,08,24,02,31,13.10
2012,08,24,02,32,13.20
2012,08,24,02,33,13.30
2012,08,24,02,34,13.30
2012,08,24,02,35,13.40
2012,08,24,02,36,13.50
2012,08,24,02,37,13.60
2012,08,24,02,38,13.60
2012,08,24,02,39,13.70
2012,08,24,02,40,13.70
2012,08,24,02,41,13.70
2012,08,24,02,42,13.70
2012,08,24,02,43,13.80
2012,08,24,02,44,13.80
2012,08,24,02,45,13.90
2012,08,24,02,46,14.00
2012,08,24,02,47,14.10
2012,08,24,02,48,14.20
2012,08,24,02,49,14.30
2012,08,24,02,50,14.40
2012,08,24,02,51,14.40
2012,08,24,02,52,14.50
2012,08,24,02,53,14.50
2012,08,24,02,54,14.60
2012,08,24,02,55,14.60
2012,08,24,02,56,14.60
2012,08,24,02,57,14.60
2012,08,24,02,58,14.60
2012,08,24,02,59,14.60
2012,08,24,03,00,14.60
2012,08,24,03,01,14.60
2012,08,24,03,02,14.70
2012,08,24,03,03,14.70
2012,08,24,03,04,14.80
2012,08,24,03,05,14.80
2012,08,24,03,06,14.80
2012,08,24,03,07,14.80
2012,08,24,03,08,14.80
2012,08,24,03,09,14.80
2012,08,24,03,10,14.80
2012,08,24,03,11,14.80
2012,08,24,03,12,14.80
2012,08,24,03,13,14.80
2012,08,24,03,14,14.80
2012,08,24,03,15,14.80
2012,08,24,03,16,14.80
2012,08,24,03,17,14.70
2012,08,24,03,18,14.70
2012,08,24,03,19,14.70
2012,08,24,03,20,14.70
2012,08,24,03,21,14.70
2012,08,24,03,22,14.60
2012,08,24,03,23,14.60
2012,08,24,03,24,14.60
2012,08,24,03,25,14.60
2012,08,24,03,26,14.50
2012,08,24,03,27,14.50
2012,08,24,03,28,14.50
2012,08,24,03,29,14.40
2012,08,24,03,30,14.40
2012,08,24,03,31,14.40
2012,08,24,03,32,14.30
2012,08,24,03,33,14.30
2012,08,24,03,34,14.30
2012,08,24,03,35,14.20
2012,08,24,03,36,14.20
2012,08,24,03,37,14.20
2012,08,24,03,38,14.10
2012,08,24,03,39,14.10
2012,08,24,03,40,14.10
2012,08,24,03,41,14.00
2012,08,24,03,42,14.00
2012,08,24,03,43,14.00
2012,08,24,03,44,14.00
2012,08,24,03,45,13.90
2012,08,24,03,46,13.90
2012,08,24,03,47,13.80
2012,08,24,03,48,13.80
2012,08,24,03,49,13.70
2012,08,24,03,50,13.60
2012,08,24,03,51,13.60
2012,08,24,03,52,13.50
2012,08,24,03,53,13.30
2012,08,24,03,54,13.20
2012,08,24,03,55,13.10
2012,08,24,03,56,12.90
2012,08,24,03,57,12.80
2012,08,24,03,58,12.70
2012,08,24,03,59,12.60
2012,08,24,04,00,12.50
2012,08,24,04,01,12.50
2012,08,24,04,02,12.50
2012,08,24,04,03,12.40
2012,08,24,04,04,12.30
2012,08,24,04,05,12.30
2012,08,24,04,06,12.20
2012,08,24,04,07,12.20
2012,08,24,04,08,12.10
2012,08,24,04,09,12.10
2012,08,24,04,10,12.00
2012,08,24,04,11,12.00
2012,08,24,04,12,11.90
2012,08,24,04,13,11.90
2012,08,24,04,14,11.90
2012,08,24,04,15,12.00
2012,08,24,04,16,12.00
2012,08,24,04,17,11.90
2012,08,24,04,18,11.90
2012,08,24,04,19,11.90
2012,08,24,04,20,11.90
2012,08,24,04,21,11.90
2012,08,24,04,22,11.90
2012,08,24,04,23,11.90
2012,08,24,04,24,11.90
2012,08,24,04,25,11.90
2012,08,24,04,26,11.90
2012,08,24,04,27,11.90
2012,08,24,04,28,11.80
2012,08,24,04,29,11.80
2012,08,24,04,30,11.80
2012,08,24,04,31,11.80
2012,08,24,04,32,11.80
2012,08,24,04,33,11.80
2012,08,24,04,34,11.70
2012,08,24,04,35,11.70
2012,08,24,04,36,11.70
2012,08,24,04,37,11.70
2012,08,24,04,38,11.70
2012,08,24,04,39,11.60
2012,08,24,04,40,11.60
2012,08,24,04,41,11.60
2012,08,24,04,42,11.60
2012,08,24,04,43,11.50
2012,08,24,04,44,11.50
2012,08,24,04,45,11.50
2012,08,24,04,46,11.40
2012,08,24,04,47,11.40
2012,08,24,04,48,11.40
2012,08,24,04,49,11.40
2012,08,24,04,50,11.40
2012,08,24,04,51,11.30
2012,08,24,04,52,11.30
2012,08,24,04,53,11.30
2012,08,24,04,54,11.30
2012,08,24,04,55,11.30
2012,08,24,04,56,11.30
2012,08,24,04,57,11.30
2012,08,24,04,58,11.30
2012,08,24,04,59,11.30
2012,08,24,05,00,11.20
2012,08,24,05,01,11.20
2012,08,24,05,02,11.20
2012,08,24,05,03,11.20
2012,08,24,05,04,11.20
2012,08,24,05,05,11.20
2012,08,24,05,06,11.20
2012,08,24,05,07,11.10
2012,08,24,05,08,11.10
2012,08,24,05,09,11.10
2012,08,24,05,10,11.10
2012,08,24,05,11,11.10
2012,08,24,05,12,11.10
2012,08,24,05,13,11.10
2012,08,24,05,14,11.10
2012,08,24,05,15,11.10
2012,08,24,05,16,11.10
2012,08,24,05,17,11.10
2012,08,24,05,18,11.10
2012,08,24,05,19,11.10
2012,08,24,05,20,11.10
2012,08,24,05,21,11.10
2012,08,24,05,22,11.10
2012,08,24,05,23,11.10
2012,08,24,05,24,11.10
2012,08,24,05,25,11.10
2012,08,24,05,26,11.10
2012,08,24,05,27,11.10
2012,08,24,05,28,11.10
2012,08,24,05,29,11.10
2012,08,24,05,30,11.10
2012,08,24,05,31,11.20
2012,08,24,05,32,11.20
2012,08,24,05,33,11.20
2012,08,24,05,34,11.20
2012,08,24,05,35,11.20
2012,08,24,05,36,11.20
2012,08,24,05,37,11.20
2012,08,24,05,38,11.20
2012,08,24,05,39,11.20
2012,08,24,05,40,11.20
2012,08,24,05,41,11.20
2012,08,24,05,42,11.20
2012,08,24,05,43,11.20
2012,08,24,05,44,11.20
2012,08,24,05,45,11.10
2012,08,24,05,46,11.10
2012,08,24,05,47,11.10
2012,08,24,05,48,11.10
2012,08,24,05,49,11.10
2012,08,24,05,50,11.10
2012,08,24,05,51,11.10
2012,08,24,05,52,11.10
2012,08,24,05,53,11.10
2012,08,24,05,54,11.10
2012,08,24,05,55,11.10
2012,08,24,05,56,11.10
2012,08,24,05,57,11.10
2012,08,24,05,58,11.10
2012,08,24,05,59,11.10
2012,08,24,06,00,11.10
2012,08,24,06,01,11.10
2012,08,24,06,02,11.10
2012,08,24,06,03,11.10
2012,08,24,06,04,11.10
2012,08,24,06,05,11.10
2012,08,24,06,06,11.10
2012,08,24,06,07,11.10
2012,08,24,06,08,11.10
2012,08,24,06,09,11.10
2012,08,24,06,10,11.10
2012,08,24,06,11,11.10
2012,08,24,06,12,11.10
2012,08,24,06,13,11.10
2012,08,24,06,14,11.10
2012,08,24,06,15,11.20
2012,08,24,06,16,11.20
2012,08,24,06,17,11.20
2012,08,24,06,18,11.20
2012,08,24,06,19,11.20
2012,08,24,06,20,11.20
2012,08,24,06,21,11.30
2012,08,24,06,22,11.30
2012,08,24,06,23,11.30
2012,08,24,06,24,11.30
2012,08,24,06,25,11.30
2012,08,24,06,26,11.30
2012,08,24,06,27,11.30
2012,08,24,06,28,11.30
2012,08,24,06,29,11.40
2012,08,24,06,30,11.40
2012,08,24,06,31,11.40
2012,08,24,06,32,11.50
2012,08,24,06,33,11.50
2012,08,24,06,34,11.60
2012,08,24,06,35,11.60
2012,08,24,06,36,11.70
2012,08,24,06,37,11.70
2012,08,24,06,38,11.70
2012,08,24,06,39,11.80
2012,08,24,06,40,11.80
2012,08,24,06,41,11.90
2012,08,24,06,42,11.90
2012,08,24,06,43,11.90
2012,08,24,06,44,12.00
2012,08,24,06,45,12.00
2012,08,24,06,46,12.00
2012,08,24,06,47,12.00
2012,08,24,06,48,12.10
2012,08,24,06,49,12.10
2012,08,24,06,50,12.10
2012,08,24,06,51,12.10
2012,08,24,06,52,12.20
2012,08,24,06,53,12.20
2012,08,24,06,54,12.30
2012,08,24,06,55,12.30
2012,08,24,06,56,12.30
2012,08,24,06,57,12.40
2012,08,24,06,58,12.40
2012,08,24,06,59,12.40
2012,08,24,07,00,12.40
2012,08,24,07,01,12.50
2012,08,24,07,02,12.50
2012,08,24,07,03,12.50
2012,08,24,07,04,12.50
2012,08,24,07,05,12.50
2012,08,24,07,06,12.50
2012,08,24,07,07,12.50
2012,08,24,07,08,12.50
2012,08,24,07,09,12.50
2012,08,24,07,10,12.50
2012,08,24,07,11,12.60
2012,08,24,07,12,12.60
2012,08,24,07,13,12.60
2012,08,24,07,14,12.50
2012,08,24,07,15,12.50
2012,08,24,07,16,12.50
2012,08,24,07,17,12.50
2012,08,24,07,18,12.50
2012,08,24,07,19,12.50
2012,08,24,07,20,12.50
2012,08,24,07,21,12.50
2012,08,24,07,22,12.50
2012,08,24,07,23,12.50
2012,08,24,07,24,12.50
2012,08,24,07,25,12.50
2012,08,24,07,26,12.50
2012,08,24,07,27,12.60
2012,08,24,07,28,12.60
2012,08,24,07,29,12.60
2012,08,24,07,30,12.60
2012,08,24,07,31,12.60
2012,08,24,07,32,12.70
2012,08,24,07,33,12.70
2012,08,24,07,34,12.70
2012,08,24,07,35,12.80
2012,08,24,07,36,12.80
2012,08,24,07,37,12.80
2012,08,24,07,38,12.90
2012,08,24,07,39,12.90
2012,08,24,07,40,12.90
2012,08,24,07,41,12.90
2012,08,24,07,42,13.00
2012,08,24,07,43,13.00
2012,08,24,07,44,13.00
2012,08,24,07,45,13.10
2012,08,24,07,46,13.10
2012,08,24,07,47,13.10
2012,08,24,07,48,13.10
2012,08,24,07,49,13.10
2012,08,24,07,50,13.10
2012,08,24,07,51,13.00
2012,08,24,07,52,13.00
2012,08,24,07,53,13.00
2012,08,24,07,54,13.00
2012,08,24,07,55,12.90
2012,08,24,07,56,12.90
2012,08,24,07,57,12.90
2012,08,24,07,58,12.90
2012,08,24,07,59,12.90
2012,08,24,08,00,12.90
2012,08,24,08,01,12.80
2012,08,24,08,02,12.80
2012,08,24,08,03,12.80
2012,08,24,08,04,12.80
2012,08,24,08,05,12.80
2012,08,24,08,06,12.80
2012,08,24,08,07,12.80
2012,08,24,08,08,12.80
2012,08,24,08,09,12.90
2012,08,24,08,10,12.90
2012,08,24,08,11,12.90
2012,08,24,08,12,12.90
2012,08,24,08,13,13.00
2012,08,24,08,14,13.00
2012,08,24,08,15,13.10
2012,08,24,08,16,13.10
2012,08,24,08,17,13.10
2012,08,24,08,18,13.10
2012,08,24,08,19,13.20
2012,08,24,08,20,13.20
2012,08,24,08,21,13.20
2012,08,24,08,22,13.20
2012,08,24,08,23,13.20
2012,08,24,08,24,13.30
2012,08,24,08,25,13.30
2012,08,24,08,26,13.30
2012,08,24,08,27,13.30
2012,08,24,08,28,13.30
2012,08,24,08,29,13.30
2012,08,24,08,30,13.40
2012,08,24,08,31,13.40
2012,08,24,08,32,13.40
2012,08,24,08,33,13.40
2012,08,24,08,34,13.50
2012,08,24,08,35,13.50
2012,08,24,08,36,13.60
2012,08,24,08,37,13.60
2012,08,24,08,38,13.70
2012,08,24,08,39,13.70
2012,08,24,08,40,13.80
2012,08,24,08,41,13.80
2012,08,24,08,42,13.90
2012,08,24,08,43,13.90
2012,08,24,08,44,14.00
2012,08,24,08,45,14.10
2012,08,24,08,46,14.10
2012,08,24,08,47,14.20
2012,08,24,08,48,14.40
2012,08,24,08,49,14.60
2012,08,24,08,50,14.70
2012,08,24,08,51,14.70
2012,08,24,08,52,14.80
2012,08,24,08,53,14.90
2012,08,24,08,54,15.00
2012,08,24,08,55,15.00
2012,08,24,08,56,15.00
2012,08,24,08,57,15.00
2012,08,24,08,58,15.00
2012,08,24,08,59,15.00
2012,08,24,09,00,15.00
2012,08,24,09,01,15.10
2012,08,24,09,02,15.10
2012,08,24,09,03,15.20
2012,08,24,09,04,15.20
2012,08,24,09,05,15.20
2012,08,24,09,06,15.20
2012,08,24,09,07,15.20
2012,08,24,09,08,15.20
2012,08,24,09,09,15.20
2012,08,24,09,10,15.20
2012,08,24,09,11,15.20
2012,08,24,09,12,15.20
2012,08,24,09,13,15.30
2012,08,24,09,14,15.30
2012,08,24,09,15,15.30
2012,08,24,09,16,15.30
2012,08,24,09,17,15.30
2012,08,24,09,18,15.30
2012,08,24,09,19,15.40
2012,08,24,09,20,15.40
2012,08,24,09,21,15.40
2012,08,24,09,22,15.40
2012,08,24,09,23,15.50
2012,08,24,09,24,15.50
2012,08,24,09,25,15.60
2012,08,24,09,26,15.70
2012,08,24,09,27,15.80
2012,08,24,09,28,16.00
2012,08,24,09,29,16.00
2012,08,24,09,30,16.10
2012,08,24,09,31,16.30
2012,08,24,09,32,16.30
2012,08,24,09,33,16.40
2012,08,24,09,34,16.40
2012,08,24,09,35,16.50
2012,08,24,09,36,16.50
2012,08,24,09,37,16.60
2012,08,24,09,38,16.60
2012,08,24,09,39,16.70
2012,08,24,09,40,16.80
2012,08,24,09,41,16.70
2012,08,24,09,42,16.70
2012,08,24,09,43,16.70
2012,08,24,09,44,16.60
2012,08,24,09,45,16.60
2012,08,24,09,46,16.50
2012,08,24,09,47,16.40
2012,08,24,09,48,16.40
2012,08,24,09,49,16.40
2012,08,24,09,50,16.40
2012,08,24,09,51,16.50
2012,08,24,09,52,16.70
2012,08,24,09,53,16.90
2012,08,24,09,54,16.90
2012,08,24,09,55,17.00
2012,08,24,09,56,17.10
2012,08,24,09,57,17.30
2012,08,24,09,58,17.50
2012,08,24,09,59,17.50
2012,08,24,10,00,17.40
2012,08,24,10,01,17.20
2012,08,24,10,02,17.00
2012,08,24,10,03,16.90
2012,08,24,10,04,16.80
2012,08,24,10,05,16.70
2012,08,24,10,06,16.60
2012,08,24,10,07,16.60
2012,08,24,10,08,16.50
2012,08,24,10,09,16.50
2012,08,24,10,10,16.60
2012,08,24,10,11,16.60
2012,08,24,10,12,16.50
2012,08,24,10,13,16.50
2012,08,24,10,14,16.60
2012,08,24,10,15,16.60
2012,08,24,10,16,16.70
2012,08,24,10,17,16.80
2012,08,24,10,18,16.80
2012,08,24,10,19,16.80
2012,08,24,10,20,16.80
2012,08,24,10,21,16.80
2012,08,24,10,22,16.80
2012,08,24,10,23,16.80
2012,08,24,10,24,16.80
2012,08,24,10,25,16.80
2012,08,24,10,26,16.80
2012,08,24,10,27,16.70
2012,08,24,10,28,16.70
2012,08,24,10,29,16.70
2012,08,24,10,30,16.60
2012,08,24,10,31,16.60
2012,08,24,10,32,16.50
2012,08,24,10,33,16.40
2012,08,24,10,34,16.30
2012,08,24,10,35,16.30
2012,08,24,10,36,16.20
2012,08,24,10,37,16.20
2012,08,24,10,38,16.20
2012,08,24,10,39,16.20
2012,08,24,10,40,16.20
2012,08,24,10,41,16.30
2012,08,24,10,42,16.30
2012,08,24,10,43,16.30
2012,08,24,10,44,16.30
2012,08,24,10,45,16.30
2012,08,24,10,46,16.30
2012,08,24,10,47,16.40
2012,08,24,10,48,16.40
2012,08,24,10,49,16.50
2012,08,24,10,50,16.60
2012,08,24,10,51,16.70
2012,08,24,10,52,16.80
2012,08,24,10,53,16.80
2012,08,24,10,54,16.80
2012,08,24,10,55,16.80
2012,08,24,10,56,16.90
2012,08,24,10,57,16.90
2012,08,24,10,58,16.80
2012,08,24,10,59,16.80
2012,08,24,11,00,16.80
2012,08,24,11,01,16.80
2012,08,24,11,02,16.60
2012,08,24,11,03,16.50
2012,08,24,11,04,16.40
2012,08,24,11,05,16.50
2012,08,24,11,06,16.50
2012,08,24,11,07,16.60
2012,08,24,11,08,16.70
2012,08,24,11,09,16.70
2012,08,24,11,10,16.80
2012,08,24,11,11,16.80
2012,08,24,11,12,16.80
2012,08,24,11,13,16.80
2012,08,24,11,14,16.90
2012,08,24,11,15,16.90
2012,08,24,11,16,16.90
2012,08,24,11,17,16.90
2012,08,24,11,18,16.90
2012,08,24,11,19,16.80
2012,08,24,11,20,16.80
2012,08,24,11,21,16.80
2012,08,24,11,22,16.80
2012,08,24,11,23,16.90
2012,08,24,11,24,16.80
2012,08,24,11,25,16.90
2012,08,24,11,26,16.90
2012,08,24,11,27,16.90
2012,08,24,11,28,17.00
2012,08,24,11,29,17.00
2012,08,24,11,30,17.10
2012,08,24,11,31,17.20
2012,08,24,11,32,17.20
2012,08,24,11,33,17.20
2012,08,24,11,34,17.30
2012,08,24,11,35,17.40
2012,08,24,11,36,17.50
2012,08,24,11,37,17.60
2012,08,24,11,38,17.60
2012,08,24,11,39,17.50
2012,08,24,11,40,17.40
2012,08,24,11,41,17.30
2012,08,24,11,42,17.30
2012,08,24,11,43,17.40
2012,08,24,11,44,17.40
2012,08,24,11,45,17.40
2012,08,24,11,46,17.50
2012,08,24,11,47,17.50
2012,08,24,11,48,17.60
2012,08,24,11,49,17.70
2012,08,24,11,50,17.80
2012,08,24,11,51,17.80
2012,08,24,11,52,17.80
2012,08,24,11,53,17.60
2012,08,24,11,54,17.40
2012,08,24,11,55,17.30
2012,08,24,11,56,17.30
2012,08,24,11,57,17.30
2012,08,24,11,58,17.30
2012,08,24,11,59,17.40
2012,08,24,12,00,17.50
2012,08,24,12,01,17.60
2012,08,24,12,02,17.70
2012,08,24,12,03,17.80
2012,08,24,12,04,17.90
2012,08,24,12,05,18.10
2012,08,24,12,06,18.10
2012,08,24,12,07,18.10
2012,08,24,12,08,18.20
2012,08,24,12,09,18.30
2012,08,24,12,10,18.30
2012,08,24,12,11,18.30
2012,08,24,12,12,18.30
2012,08,24,12,13,18.20
2012,08,24,12,14,18.00
2012,08,24,12,15,17.90
2012,08,24,12,16,17.90
2012,08,24,12,17,17.80
2012,08,24,12,18,17.70
2012,08,24,12,19,17.60
2012,08,24,12,20,17.50
2012,08,24,12,21,17.40
2012,08,24,12,22,17.30
2012,08,24,12,23,17.20
2012,08,24,12,24,17.20
2012,08,24,12,25,17.20
2012,08,24,12,26,17.20
2012,08,24,12,27,17.10
2012,08,24,12,28,17.00
2012,08,24,12,29,16.90
2012,08,24,12,30,16.90
2012,08,24,12,31,16.90
2012,08,24,12,32,16.90
2012,08,24,12,33,16.90
2012,08,24,12,34,16.90
2012,08,24,12,35,16.90
2012,08,24,12,36,16.90
2012,08,24,12,37,16.90
2012,08,24,12,38,16.80
2012,08,24,12,39,16.90
2012,08,24,12,40,17.00
2012,08,24,12,41,17.10
2012,08,24,12,42,17.20
2012,08,24,12,43,17.30
2012,08,24,12,44,17.40
2012,08,24,12,45,17.50
2012,08,24,12,46,17.60
2012,08,24,12,47,17.70
2012,08,24,12,48,17.70
2012,08,24,12,49,17.70
2012,08,24,12,50,17.60
2012,08,24,12,51,17.40
2012,08,24,12,52,17.30
2012,08,24,12,53,17.20
2012,08,24,12,54,17.10
2012,08,24,12,55,17.10
2012,08,24,12,56,17.10
2012,08,24,12,57,17.00
2012,08,24,12,58,17.00
2012,08,24,12,59,16.90
2012,08,24,13,00,16.90
2012,08,24,13,01,16.90
2012,08,24,13,02,16.80
2012,08,24,13,03,16.80
2012,08,24,13,04,16.80
2012,08,24,13,05,16.80
2012,08,24,13,06,16.80
2012,08,24,13,07,16.80
2012,08,24,13,08,16.90
2012,08,24,13,09,17.00
2012,08,24,13,10,17.10
2012,08,24,13,11,17.20
2012,08,24,13,12,17.20
2012,08,24,13,13,17.30
2012,08,24,13,14,17.40
2012,08,24,13,15,17.50
2012,08,24,13,16,17.60
2012,08,24,13,17,17.80
2012,08,24,13,18,17.90
2012,08,24,13,19,17.90
2012,08,24,13,20,17.90
2012,08,24,13,21,17.80
2012,08,24,13,22,17.70
2012,08,24,13,23,17.70
2012,08,24,13,24,17.70
2012,08,24,13,25,17.80
2012,08,24,13,26,17.80
2012,08,24,13,27,17.80
2012,08,24,13,28,17.90
2012,08,24,13,29,18.00
2012,08,24,13,30,18.00
2012,08,24,13,31,18.00
2012,08,24,13,32,18.10
2012,08,24,13,33,18.10
2012,08,24,13,34,18.10
2012,08,24,13,35,18.10
2012,08,24,13,36,18.10
2012,08,24,13,37,18.10
2012,08,24,13,38,18.00
2012,08,24,13,39,18.00
2012,08,24,13,40,18.00
2012,08,24,13,41,18.00
2012,08,24,13,42,18.00
2012,08,24,13,43,18.00
2012,08,24,13,44,18.10
2012,08,24,13,45,18.10
2012,08,24,13,46,18.10
2012,08,24,13,47,18.10
2012,08,24,13,48,18.10
2012,08,24,13,49,18.00
2012,08,24,13,50,17.90
2012,08,24,13,51,17.90
2012,08,24,13,52,18.00
2012,08,24,13,53,18.00
2012,08,24,13,54,18.00
2012,08,24,13,55,18.00
2012,08,24,13,56,18.00
2012,08,24,13,57,18.00
2012,08,24,13,58,18.00
2012,08,24,13,59,18.00
2012,08,24,14,00,18.00
2012,08,24,14,01,17.90
2012,08,24,14,02,18.00
2012,08,24,14,03,18.00
2012,08,24,14,04,18.10
2012,08,24,14,05,18.10
2012,08,24,14,06,18.00
2012,08,24,14,07,17.80
2012,08,24,14,08,17.70
2012,08,24,14,09,17.50
2012,08,24,14,10,17.50
2012,08,24,14,11,17.40
2012,08,24,14,12,17.40
2012,08,24,14,13,17.50
2012,08,24,14,14,17.50
2012,08,24,14,15,17.40
2012,08,24,14,16,17.40
2012,08,24,14,17,17.40
2012,08,24,14,18,17.40
2012,08,24,14,19,17.50
2012,08,24,14,20,17.60
2012,08,24,14,21,17.70
2012,08,24,14,22,17.80
2012,08,24,14,23,17.80
2012,08,24,14,24,17.90
2012,08,24,14,25,17.90
2012,08,24,14,26,18.00
2012,08,24,14,27,18.00
2012,08,24,14,28,17.90
2012,08,24,14,29,17.80
2012,08,24,14,30,17.80
2012,08,24,14,31,17.80
2012,08,24,14,32,17.80
2012,08,24,14,33,17.80
2012,08,24,14,34,17.80
2012,08,24,14,35,17.90
2012,08,24,14,36,17.90
2012,08,24,14,37,17.90
2012,08,24,14,38,17.90
2012,08,24,14,39,17.80
2012,08,24,14,40,17.80
2012,08,24,14,41,17.80
2012,08,24,14,42,17.90
2012,08,24,14,43,17.90
2012,08,24,14,44,17.90
2012,08,24,14,45,17.80
2012,08,24,14,46,17.70
2012,08,24,14,47,17.70
2012,08,24,14,48,17.70
2012,08,24,14,49,17.70
2012,08,24,14,50,17.70
2012,08,24,14,51,17.70
2012,08,24,14,52,17.70
2012,08,24,14,53,17.70
2012,08,24,14,54,17.70
2012,08,24,14,55,17.80
2012,08,24,14,56,17.80
2012,08,24,14,57,17.80
2012,08,24,14,58,17.80
2012,08,24,14,59,17.90
2012,08,24,15,00,17.90
2012,08,24,15,01,17.80
2012,08,24,15,02,17.70
2012,08,24,15,03,17.70
2012,08,24,15,04,17.80
2012,08,24,15,05,17.80
2012,08,24,15,06,17.90
2012,08,24,15,07,17.90
2012,08,24,15,08,18.00
2012,08,24,15,09,18.10
2012,08,24,15,10,18.10
2012,08,24,15,11,18.10
2012,08,24,15,12,18.20
2012,08,24,15,13,18.30
2012,08,24,15,14,18.30
2012,08,24,15,15,18.30
2012,08,24,15,16,18.30
2012,08,24,15,17,18.30
2012,08,24,15,18,18.30
2012,08,24,15,19,18.20
2012,08,24,15,20,18.00
2012,08,24,15,21,17.90
2012,08,24,15,22,17.90
2012,08,24,15,23,17.90
2012,08,24,15,24,17.90
2012,08,24,15,25,17.90
2012,08,24,15,26,17.80
2012,08,24,15,27,17.70
2012,08,24,15,28,17.60
2012,08,24,15,29,17.60
2012,08,24,15,30,17.60
2012,08,24,15,31,17.70
2012,08,24,15,32,17.70
2012,08,24,15,33,17.70
2012,08,24,15,34,17.70
2012,08,24,15,35,17.70
2012,08,24,15,36,17.70
2012,08,24,15,37,17.60
2012,08,24,15,38,17.60
2012,08,24,15,39,17.70
2012,08,24,15,40,17.80
2012,08,24,15,41,17.70
2012,08,24,15,42,17.80
2012,08,24,15,43,17.80
2012,08,24,15,44,17.80
2012,08,24,15,45,17.70
2012,08,24,15,46,17.70
2012,08,24,15,47,17.60
2012,08,24,15,48,17.50
2012,08,24,15,49,17.60
2012,08,24,15,50,17.60
2012,08,24,15,51,17.70
2012,08,24,15,52,17.80
2012,08,24,15,53,17.90
2012,08,24,15,54,18.00
2012,08,24,15,55,17.90
2012,08,24,15,56,17.80
2012,08,24,15,57,17.80
2012,08,24,15,58,17.80
2012,08,24,15,59,17.80
2012,08,24,16,00,17.70
2012,08,24,16,01,17.70
2012,08,24,16,02,17.70
2012,08,24,16,03,17.70
2012,08,24,16,04,17.80
2012,08,24,16,05,18.00
2012,08,24,16,06,18.10
2012,08,24,16,07,18.00
2012,08,24,16,08,17.90
2012,08,24,16,09,17.90
2012,08,24,16,10,18.00
2012,08,24,16,11,18.00
2012,08,24,16,12,18.00
2012,08,24,16,13,17.90
2012,08,24,16,14,18.00
2012,08,24,16,15,18.10
2012,08,24,16,16,18.20
2012,08,24,16,17,18.20
2012,08,24,16,18,18.10
2012,08,24,16,19,18.00
2012,08,24,16,20,17.90
2012,08,24,16,21,17.90
2012,08,24,16,22,18.00
2012,08,24,16,23,18.10
2012,08,24,16,24,18.20
2012,08,24,16,25,18.20
2012,08,24,16,26,18.30
2012,08,24,16,27,18.20
2012,08,24,16,28,18.20
2012,08,24,16,29,18.20
2012,08,24,16,30,18.20
2012,08,24,16,31,18.20
2012,08,24,16,32,18.20
2012,08,24,16,33,18.20
2012,08,24,16,34,18.30
2012,08,24,16,35,18.30
2012,08,24,16,36,18.30
2012,08,24,16,37,18.40
2012,08,24,16,38,18.50
2012,08,24,16,39,18.50
2012,08,24,16,40,18.60
2012,08,24,16,41,18.50
2012,08,24,16,42,18.40
2012,08,24,16,43,18.30
2012,08,24,16,44,18.20
2012,08,24,16,45,18.10
2012,08,24,16,46,18.10
2012,08,24,16,47,18.10
2012,08,24,16,48,18.10
2012,08,24,16,49,18.20
2012,08,24,16,50,18.20
2012,08,24,16,51,18.20
2012,08,24,16,52,18.20
2012,08,24,16,53,18.20
2012,08,24,16,54,18.30
2012,08,24,16,55,18.30
2012,08,24,16,56,18.40
2012,08,24,16,57,18.50
2012,08,24,16,58,18.50
2012,08,24,16,59,18.50
2012,08,24,17,00,18.40
2012,08,24,17,01,18.30
2012,08,24,17,02,18.40
2012,08,24,17,03,18.40
2012,08,24,17,04,18.40
2012,08,24,17,05,18.50
2012,08,24,17,06,18.60
2012,08,24,17,07,18.70
2012,08,24,17,08,18.80
2012,08,24,17,09,18.80
2012,08,24,17,10,18.90
2012,08,24,17,11,19.00
2012,08,24,17,12,19.00
2012,08,24,17,13,19.10
2012,08,24,17,14,19.10
2012,08,24,17,15,19.00
2012,08,24,17,16,19.00
2012,08,24,17,17,18.90
2012,08,24,17,18,18.80
2012,08,24,17,19,18.70